Regional Weather Roundup
Issued by NWS

Home | Current Version | Previous Version | Text Only | Print | Product List | Glossary Off
Versions: 1 2 3 4 5 6 7 8 9 10 11 12 13 14 15 16 17 18 19 20 21 22 23 24 25 26 27

000
ASUS45 KSLC 212310
RWRUT

UTAH REGIONAL WEATHER ROUNDUP
NATIONAL WEATHER SERVICE SALT LAKE CITY UT
500 PM MDT THU SEP 21 2017

UTZ001>011-023>025-220000-

NORTHERN UTAH

CITY           SKY/WX    TMP DP  RH WIND       PRES   REMARKS
BRIGHAM CITY   CLOUDY    46  37  71 NW16      29.74R
DUGWAY         LGT RAIN  43  39  84 NW21G29   29.75R
HILL AFB       CLOUDY    47  40  78 N16       29.72R
LOGAN          CLOUDY    46  39  76 N15       29.74S
OGDEN          CLOUDY    47  40  76 NW13G23   29.72R
SALT LAKE CITY CLOUDY    53  41  63 NW18      29.72R
TOOELE VALLEY  LGT RAIN  43  41  93 NW17G23   29.77R
WENDOVER       LGT RAIN  45  39  81 W8        29.81S
HEBER CITY     CLOUDY    64  36  34 SW9       29.60S
WEST JORDAN    CLOUDY    48  47  99 NW17G28   29.73R

$$

UTZ011>015-024>027-220000-

CENTRAL/NORTHEAST UTAH

CITY           SKY/WX    TMP DP  RH WIND       PRES   REMARKS
PROVO AIRPORT  LGT RAIN  57  46  66 NW26      29.64R
MOAB/CANYONLAN SUNNY     84  22  10 SW23G35   29.61F
DELTA          PTSUNNY   52  41  66 NW22G32   29.66R
PRICE          PTSUNNY   75  29  18 S28G41    29.64F
ROOSEVELT      PTSUNNY   79  28  15 S23G33    29.63S
VERNAL         SUNNY     79  26  14 S25G38    29.63F

$$

UTZ013>016-019>022-027-220000-

SOUTHERN UTAH

CITY           SKY/WX    TMP DP  RH WIND       PRES   REMARKS
BRYCE CANYON   MOSUNNY   66  25  21 S25G45    29.83F
CEDAR CITY     MOSUNNY   72  34  24 SW33G52   29.67F
MILFORD        PTSUNNY   75  34  22 S26G46    29.61S
ST GEORGE      CLOUDY    84  35  17 SW33G44   29.58F
HANKSVILLE     MOSUNNY   82  30  15 S25G35    29.62F
BLANDING         N/A     77  23  13 SW25G36   29.88F

$$

REGIONAL REPORTS     COLORADO/ARIZONA

CITY           SKY/WX    TMP DP  RH WIND       PRES   REMARKS
CRAIG, CO      SUNNY     78  15   9 SW26G39   29.73F
GRAND JUNCTION SUNNY     84  21  10 S22G31    29.68F
RIFLE, CO      SUNNY     82  18   9 S20G31    29.72F
MONTROSE, CO   SUNNY     80  20  10 SW28G40   29.76F
CORTEZ, CO     SUNNY     81  19  10 SW17      29.85F
PAGE, AZ       SUNNY     85  26  11 SW14G28   29.65F
GRAND CANYON   SUNNY     70  29  21 SW32G45   29.89F
KINGMAN, AZ    SUNNY     82  34  17 S25G40    29.72F
FLAGSTAFF, AZ  SUNNY     66  28  24 SW33G40   29.96R

$$

REGIONAL REPORTS    NEVADA/IDAHO/WYOMING

CITY           SKY/WX    TMP DP  RH WIND       PRES   REMARKS
LAS VEGAS, NV  MOSUNNY   79  46  31 SW21G37   29.63R
ELY, NY        LGT SNOW  33  33 100 CALM      29.87R FOG
ELKO, NV       LGT RAIN  40  35  83 N3        29.81R
POCATELLO, ID  LGT RAIN  41  39  93 E8        29.80F
BURLEY, ID     CLOUDY    46  40  79 NW7       29.79S
FORT BRIDGER,  CLOUDY    62  39  42 NE5       29.72S
EVANSTON, WY   CLOUDY    61  38  42 S16G23    29.67F
ROCK SPRINGS,  CLOUDY    69  26  20 S29G38    29.67F
KEMMERER, WY   LGT RAIN  52  43  71 CALM      29.72F

$$




USA.gov is the U.S. government's official web portal to all federal, state and local government web resources and services.